Mountain Home, AR

9:48 AM CDT on August 17, 2017 (GMT -0500)
Baxter County Regional

Weather History for KBPK - June, 2013

Change the Weather History Date:

Friday, June 14, 2013

  Actual Average (KFLP) Record (KFLP)
Temperature  
Mean Temperature 75 °F -  
Max Temperature 87 °F 82 °F 93 °F (1998)
Min Temperature 64 °F 62 °F 53 °F (2014)
Cooling Degree Days 10    
Growing Degree Days 25 (Base 50)    
Moisture  
Dew Point 63 °F    
Average Humidity 67    
Maximum Humidity 90    
Minimum Humidity 48    
Precipitation  
Precipitation 0.00 in - - ()
Sea Level Pressure  
Sea Level Pressure 30.00 in    
Wind  
Wind Speed 2 mph (SE)    
Max Wind Speed 6 mph    
Max Gust Speed -    
Visibility 9 miles    
Events      
Averages and records for this station are not official NWS values.
T = Trace of Precipitation, MM = Missing Value Source: NWS Daily Summary

Daily Weather History Graph

Daily Weather History Graph

Search for Another Location

Airport or City:

Trip Planner

Search our weather history database for the weather conditions in past years. The results will help you decide how hot, cold, wet, or windy it might be!

Date:

Astronomy

Jun. 14, 2013 Rise Set
Actual Time 5:51 AM CDT 8:29 PM CDT
Civil Twilight 5:21 AM CDT 8:59 PM CDT
Nautical Twilight 4:43 AM CDT 9:37 PM CDT
Astronomical Twilight 4:01 AM CDT 10:19 PM CDT
Moon 11:18 AM CDT (6/14) No Moon Set
Length of Visible Light 15h 38m
Length of Day
14h 37m
Waxing Crescent, 30% of the Moon is Illuminated
Jun 14
Waxing Crescent
Jun 16
First Quarter
Jun 23
Full
Jun 29
Last Quarter
Jul 8
New

Hourly Weather History & Observations

Time (CDT) Temp. Heat Index Dew Point Humidity Pressure Visibility Wind Dir Wind Speed Gust Speed Precip Events Conditions
12:53 AM 70.0 °F - 63.0 °F 78% 29.96 in 10.0 mi Calm Calm - N/A   Clear
1:53 AM 66.9 °F - 63.0 °F 87% 29.98 in 9.0 mi Calm Calm - N/A   Clear
2:53 AM 66.0 °F - 63.0 °F 90% 29.99 in 9.0 mi Calm Calm - N/A   Clear
3:53 AM 64.9 °F - 62.1 °F 90% 29.99 in 9.0 mi Calm Calm - N/A   Clear
4:53 AM 64.9 °F - 62.1 °F 90% 30.01 in 9.0 mi Calm Calm - N/A   Clear
5:53 AM 64.9 °F - 62.1 °F 90% 30.00 in 8.0 mi NE 3.5 mph - N/A   Clear
6:53 AM 66.0 °F - 63.0 °F 90% 30.01 in 7.0 mi Calm Calm - N/A   Clear
7:53 AM 70.0 °F - 64.0 °F 81% 30.03 in 7.0 mi Calm Calm - N/A   Clear
8:53 AM 73.0 °F - 64.9 °F 76% 30.04 in 8.0 mi Calm Calm - N/A   Clear
9:53 AM 78.1 °F - 63.0 °F 60% 30.04 in 9.0 mi SSE 5.8 mph - N/A   Clear
10:53 AM 80.1 °F 81.7 °F 64.0 °F 58% 30.04 in 9.0 mi SE 5.8 mph - N/A   Clear
11:53 AM 81.0 °F 81.9 °F 62.1 °F 52% 30.02 in 9.0 mi SSE 5.8 mph - N/A   Partly Cloudy
12:53 PM 82.9 °F 83.7 °F 62.1 °F 49% 30.02 in 10.0 mi SW 4.6 mph - N/A   Clear
1:53 PM 82.9 °F 84.0 °F 63.0 °F 51% 30.01 in 9.0 mi Variable 5.8 mph - N/A   Clear
2:53 PM 84.9 °F 86.1 °F 64.0 °F 49% 29.99 in 9.0 mi Calm Calm - N/A   Clear
3:53 PM 84.9 °F 85.9 °F 63.0 °F 48% 29.98 in 10.0 mi Variable 4.6 mph - N/A   Clear
4:53 PM 86.0 °F 87.6 °F 64.9 °F 49% 29.96 in 9.0 mi Variable 4.6 mph - N/A   Clear
5:53 PM 84.9 °F 85.9 °F 63.0 °F 48% 29.95 in 9.0 mi ESE 5.8 mph - N/A   Clear
6:53 PM 82.9 °F 84.0 °F 63.0 °F 51% 29.95 in 9.0 mi ESE 5.8 mph - N/A   Clear
7:53 PM 80.1 °F 81.7 °F 64.0 °F 58% 29.95 in 9.0 mi SE 4.6 mph - N/A   Clear
8:53 PM 77.0 °F - 64.0 °F 64% 29.97 in 10.0 mi ESE 4.6 mph - N/A   Clear
9:53 PM 75.0 °F - 64.0 °F 69% 29.99 in 10.0 mi ESE 3.5 mph - N/A   Clear
10:53 PM 75.0 °F - 62.1 °F 64% 30.00 in 10.0 mi ESE 5.8 mph - N/A   Clear
11:53 PM 73.0 °F - 62.1 °F 68% 30.01 in 10.0 mi SE 3.5 mph - N/A   Clear